Terminal Aerodrome Forecast
Issued by NWS Lake Charles, LA

Home | Current Version | Previous Version | Text Only | Print | Product List | Glossary On
Versions: 1 2 3 4 5 6 7 8 9 10 11 12 13 14
000
FTUS44 KLCH 131000 AAA
TAFAEX
TAF AMD
KAEX 131048Z 1311/1406 00000KT 3/4SM BR SKC
     FM131300 VRB03KT 3SM BR SKC
     FM131400 VRB03KT P6SM SCT140
     FM131700 10003KT P6SM SCT035 SCT250
     FM140100 15004KT P6SM FEW045 SCT250=

USA.gov is the U.S. government's official web portal to all federal, state and local government web resources and services.